Wind_Speed
14 14 13 14 14 14 14 14 14 14 14 14 14 14 15 15 15 15 15 15 14 14 14 14 14 15 16 16 17 17 17 17 18 19 19 20 20 20
14 13 14 14 14 14 14 14 15 15 15 14 14 14 15 15 15 15 15 14 14 14 14 14 14 15 16 17 17 17 18 18 19 19 20 20 21 21
14 14 14 13 14 14 15 15 15 15 15 14 14 14 14 15 16 15 15 15 15 15 15 15 15 16 17 18 18 18 18 19 19 20 20 21 22 22
13 13 13 13 14 14 15 14 14 14 14 13 13 13 13 14 14 15 15 15 15 15 15 16 16 17 18 18 18 19 19 19 20 21 22 22 23 24
13 13 14 14 15 15 15 15 15 14 14 14 14 15 14 14 14 15 15 16 16 16 16 17 17 18 18 18 19 19 20 21 22 22 23 24 24 25
15 14 15 15 15 16 16 16 15 15 15 15 15 15 14 14 15 16 17 17 17 17 18 18 19 20 20 20 21 21 22 22 23 24 24 25 25 26
16 15 15 15 15 16 16 16 16 16 16 15 15 15 14 15 16 17 17 18 19 19 19 20 20 21 21 22 22 23 23 24 24 24 25 25 25 26
16 16 16 16 16 16 16 16 16 16 15 15 15 15 15 16 16 17 17 18 18 19 20 20 21 21 22 22 23 23 24 24 24 25 25 25 25 25
16 16 16 17 17 17 17 17 16 16 16 17 16 16 16 16 17 17 17 18 18 18 20 21 21 22 22 22 23 24 24 24 24 24 24 25 25 25
15 16 16 16 16 16 16 16 16 16 16 16 17 17 17 17 17 18 18 18 19 19 21 22 23 23 23 23 24 24 24 24 24 24 24 25 25 25
17 17 16 16 16 16 16 17 16 16 16 17 17 17 17 17 18 18 18 18 19 20 21 22 23 23 24 24 24 24 24 24 24 24 25 25 25 25
17 17 17 17 17 17 17 16 16 16 17 17 18 18 18 18 19 19 19 20 21 22 22 22 23 23 23 23 24 24 24 24 24 24 24 25 25 25
18 17 17 17 17 17 17 17 17 17 17 18 19 19 19 20 20 20 21 21 22 23 23 23 23 23 24 24 23 24 24 24 25 25 25 25 26 26
18 18 18 17 18 18 18 18 18 18 19 19 19 19 20 20 21 21 22 22 23 23 24 24 24 24 25 24 24 24 25 25 25 25 25 26 27 27
19 19 19 19 19 19 20 19 19 19 20 20 21 21 21 21 22 22 23 24 24 25 25 24 25 25 25 25 25 25 26 26 26 26 27 27 28 29
21 20 19 20 20 20 21 21 20 20 21 21 21 22 23 23 23 23 24 25 26 26 26 26 26 26 27 27 27 27 27 27 28 28 28 29 29 30
22 21 21 21 21 21 21 21 22 22 22 22 23 23 23 24 25 25 26 27 27 27 27 27 28 28 27 28 28 28 28 29 29 30 30 30 31 32
24 23 23 23 22 23 23 23 23 23 23 23 24 24 24 25 26 26 27 28 28 28 28 28 28 28 28 28 28 28 29 29 30 31 31 31 31 33
25 24 24 24 24 25 25 25 24 24 24 24 25 25 25 25 26 27 28 28 29 29 29 29 29 29 28 28 28 29 30 30 31 31 32 32 32 32
25 25 25 25 26 26 26 26 25 25 25 26 26 26 25 25 26 27 28 29 29 29 29 29 29 29 29 29 29 30 31 31 31 31 32 32 32 33
27 26 26 26 26 26 27 26 26 26 26 26 26 26 26 26 27 28 29 29 29 29 29 30 30 30 29 30 30 30 32 32 31 31 32 32 32 32
28 28 28 27 27 27 27 27 27 27 27 27 27 26 26 27 27 29 30 30 29 29 29 29 29 30 30 30 30 30 31 31 31 31 32 32 32 32
28 28 29 29 29 29 29 29 28 28 28 28 28 27 27 28 28 29 29 29 29 29 29 29 29 30 31 31 31 30 30 31 31 31 31 32 33 33
Wind_Direction
285 282 279 279 280 283 286 289 289 287 284 284 281 277 277 275 275 277 278 282 283 283 283 283 284 285 283 283 284 283 281 281 280 282 280 279 278 278
282 279 280 280 279 285 289 290 287 288 286 282 280 279 277 275 275 276 276 277 279 281 284 285 286 285 285 286 285 285 285 284 283 283 283 282 282 282
280 278 278 278 279 284 289 290 288 287 286 285 282 280 277 275 277 276 276 278 280 280 282 284 287 288 288 288 287 287 286 285 284 285 284 283 283 282
281 280 278 279 282 286 287 290 291 288 288 285 284 282 280 279 277 277 280 282 283 283 283 285 288 292 291 290 290 290 288 287 287 286 286 284 283 284
280 282 280 281 284 286 285 288 289 289 290 285 285 283 280 279 279 280 280 281 284 286 288 288 289 291 292 293 292 291 290 289 289 289 288 286 285 286
280 286 285 282 284 286 286 287 288 289 290 290 287 283 280 279 281 282 281 281 282 285 288 289 291 292 293 293 293 291 290 289 289 290 289 288 287 287
281 284 284 284 286 286 286 285 285 286 290 290 287 286 283 281 283 284 283 282 281 283 286 289 292 293 293 294 294 293 291 290 289 290 291 290 289 288
279 281 283 284 286 287 287 285 283 283 286 287 285 284 286 286 287 287 287 286 287 287 290 291 292 294 295 296 296 296 295 293 292 291 291 291 290 290
279 280 282 285 286 287 289 289 286 284 285 285 282 282 284 287 288 288 288 288 287 289 291 292 293 295 297 297 297 298 298 297 296 294 293 293 292 292
281 284 284 284 285 287 288 290 289 287 285 286 284 283 283 284 286 287 287 288 290 291 293 294 294 296 297 297 298 299 299 298 296 296 295 294 294 294
280 283 283 284 286 289 289 289 289 287 284 284 284 285 287 288 288 289 289 290 292 294 295 295 295 297 297 298 300 300 299 298 297 296 296 295 295 295
283 282 281 283 287 289 289 288 288 286 283 283 284 286 288 288 289 290 291 292 292 293 294 295 295 296 297 299 300 300 299 298 298 298 296 295 295 296
281 281 281 284 286 289 290 289 287 285 284 284 285 286 287 288 288 288 290 292 294 295 295 295 296 297 298 298 299 300 300 300 299 299 298 297 297 297
279 280 281 282 283 285 287 288 287 284 285 285 285 285 286 287 288 288 289 292 295 296 296 296 297 298 299 299 299 299 300 300 300 300 300 300 300 300
279 279 281 283 282 283 285 286 286 284 284 284 284 284 285 287 288 289 291 293 295 296 296 296 297 299 299 299 298 298 299 299 300 300 301 301 300 300
276 278 281 283 283 284 284 286 286 283 284 285 285 285 285 286 288 290 291 292 294 295 295 294 296 297 297 297 297 298 298 298 299 300 300 300 300 301
275 277 280 282 283 283 283 284 285 285 285 285 285 285 286 286 287 288 290 291 292 294 293 293 295 296 296 296 297 297 297 298 299 299 299 299 300 301
274 275 278 280 281 281 282 284 285 286 285 285 286 286 286 287 288 290 292 293 292 292 292 291 293 293 294 295 296 297 297 298 298 299 299 299 300 300
274 276 277 278 279 280 282 284 285 285 285 286 287 287 287 287 288 290 293 293 293 293 292 292 292 292 293 295 296 296 297 298 299 299 299 300 301 302
274 275 276 277 278 279 281 283 284 284 285 286 286 287 288 289 291 292 293 293 293 293 292 291 291 292 293 295 295 296 297 299 299 300 300 302 303 303
273 275 275 276 277 277 278 280 283 285 286 286 287 287 288 290 292 293 294 294 293 293 292 291 291 292 292 293 295 296 298 299 299 300 300 302 303 304
272 273 274 276 277 277 278 280 282 283 284 284 285 286 287 290 291 292 293 293 293 294 293 291 291 292 292 294 296 296 297 298 299 300 300 302 303 304
272 272 273 274 275 277 278 280 280 281 282 283 284 285 287 288 289 290 292 292 293 294 296 293 292 293 293 295 296 297 297 297 299 301 301 302 304 305
Height
5832 5832 5831 5830 5829 5829 5828 5827 5826 5825 5824 5823 5821 5820 5819 5818 5818 5818 5817 5817 5816 5815 5814 5813 5812 5811 5810 5809 5808 5807 5806 5805 5804 5803 5802 5801 5801 5800
5829 5828 5827 5827 5826 5825 5824 5823 5822 5821 5819 5818 5817 5816 5815 5814 5814 5813 5813 5812 5812 5811 5810 5809 5808 5807 5806 5805 5804 5803 5802 5800 5799 5798 5797 5796 5795 5794
5825 5824 5824 5823 5822 5821 5820 5819 5818 5816 5815 5814 5812 5811 5811 5810 5809 5809 5809 5809 5808 5807 5806 5805 5804 5803 5801 5800 5799 5798 5796 5795 5794 5792 5791 5790 5789 5787
5821 5821 5820 5819 5818 5818 5816 5815 5814 5812 5811 5810 5809 5807 5807 5806 5805 5805 5805 5804 5804 5803 5802 5801 5799 5798 5797 5795 5794 5792 5791 5789 5788 5786 5785 5784 5782 5780
5817 5817 5816 5815 5815 5814 5813 5811 5810 5809 5807 5806 5805 5804 5803 5802 5801 5801 5800 5800 5799 5798 5797 5796 5795 5793 5792 5790 5788 5787 5785 5783 5782 5780 5778 5776 5775 5773
5813 5813 5812 5811 5811 5809 5808 5807 5806 5805 5803 5802 5801 5799 5799 5798 5797 5796 5796 5795 5794 5793 5792 5791 5790 5788 5786 5785 5783 5781 5779 5777 5775 5773 5771 5769 5767 5765
5809 5809 5808 5807 5806 5805 5804 5803 5801 5800 5799 5797 5796 5795 5794 5793 5793 5792 5791 5790 5789 5788 5787 5786 5784 5783 5781 5779 5777 5774 5772 5770 5768 5766 5763 5761 5759 5757
5805 5804 5804 5803 5802 5800 5799 5798 5797 5796 5794 5793 5792 5791 5790 5789 5788 5787 5786 5785 5784 5783 5782 5780 5779 5777 5775 5773 5770 5768 5765 5763 5760 5758 5756 5753 5751 5749
5800 5800 5799 5798 5797 5796 5794 5793 5792 5790 5790 5788 5787 5786 5785 5784 5783 5782 5781 5779 5778 5777 5776 5774 5773 5771 5768 5766 5764 5761 5758 5756 5753 5750 5748 5746 5744 5742
5796 5795 5794 5793 5792 5791 5790 5788 5787 5785 5784 5783 5783 5782 5780 5779 5778 5777 5776 5774 5773 5771 5770 5768 5766 5765 5762 5760 5757 5754 5751 5749 5746 5743 5741 5739 5736 5734
5791 5790 5789 5788 5787 5786 5785 5784 5782 5781 5779 5778 5777 5776 5775 5774 5773 5772 5770 5769 5768 5766 5764 5762 5760 5758 5756 5753 5751 5748 5745 5742 5739 5737 5734 5732 5730 5727
5786 5785 5784 5783 5782 5781 5780 5779 5777 5776 5774 5773 5772 5771 5770 5769 5768 5766 5765 5763 5762 5760 5758 5756 5754 5752 5750 5747 5744 5741 5739 5736 5733 5731 5728 5725 5723 5720
5781 5780 5779 5778 5777 5776 5775 5773 5772 5771 5769 5768 5767 5766 5765 5763 5762 5760 5759 5758 5756 5754 5752 5749 5747 5745 5743 5741 5738 5735 5732 5730 5727 5724 5721 5718 5716 5713
5775 5774 5774 5773 5772 5770 5769 5768 5766 5765 5764 5763 5761 5760 5759 5757 5756 5754 5753 5751 5749 5747 5745 5742 5740 5738 5736 5733 5731 5728 5726 5723 5720 5717 5714 5711 5708 5706
5769 5768 5768 5767 5766 5765 5763 5762 5760 5759 5758 5757 5755 5754 5752 5751 5750 5748 5746 5744 5742 5740 5738 5735 5733 5731 5729 5726 5724 5721 5719 5716 5713 5710 5707 5704 5701 5698
5763 5762 5761 5760 5760 5758 5757 5756 5754 5753 5751 5750 5749 5747 5746 5744 5743 5741 5739 5737 5735 5733 5730 5728 5726 5723 5721 5719 5716 5714 5711 5708 5705 5702 5699 5696 5693 5690
5756 5756 5755 5754 5753 5752 5751 5749 5748 5746 5744 5743 5742 5740 5739 5737 5736 5734 5732 5730 5728 5725 5723 5720 5718 5715 5713 5711 5708 5705 5703 5700 5697 5694 5691 5688 5684 5681
5749 5749 5748 5747 5746 5745 5744 5742 5741 5739 5737 5736 5734 5733 5731 5730 5728 5726 5724 5722 5720 5717 5714 5712 5709 5707 5705 5703 5701 5698 5695 5692 5689 5686 5682 5679 5676 5672
5742 5741 5741 5740 5739 5737 5736 5735 5733 5732 5730 5728 5727 5725 5723 5722 5720 5718 5716 5714 5711 5709 5706 5703 5701 5698 5697 5695 5693 5689 5686 5683 5680 5677 5673 5670 5667 5663
5734 5733 5733 5732 5731 5729 5728 5727 5725 5724 5722 5721 5719 5717 5715 5714 5712 5710 5707 5705 5702 5700 5697 5695 5692 5690 5688 5686 5683 5680 5677 5674 5671 5668 5664 5661 5657 5653
5725 5725 5724 5723 5722 5721 5719 5718 5717 5715 5714 5712 5711 5709 5707 5705 5703 5701 5699 5696 5693 5691 5688 5686 5683 5681 5678 5676 5674 5671 5668 5664 5661 5658 5655 5652 5648 5645
5716 5716 5715 5714 5713 5712 5711 5709 5708 5707 5705 5704 5702 5700 5698 5696 5694 5692 5689 5687 5684 5682 5679 5677 5674 5671 5669 5666 5664 5662 5659 5655 5652 5648 5645 5642 5639 5635
5706 5705 5705 5704 5703 5702 5701 5700 5699 5698 5696 5695 5693 5691 5689 5687 5685 5683 5680 5678 5675 5673 5670 5667 5665 5662 5660 5657 5655 5652 5649 5646 5643 5639 5636 5632 5629 5625